SB KEPS @ AMSAT $ORB12271.O Orbital Elements 12271.OSCAR
HR AMSAT ORBITAL ELEMENTS FOR OSCAR SATELLITES FROM WA5QGD FORT WORTH,TX September 27, 2012 Send SUBSCRIBE KEPS/UNSUBSCRIBE KEPS to [email protected] only BID: ORB12271.O TO ALL RADIO AMATEURS BT
Satellite: AO-07 Catalog number: 07530 Epoch time: 12270.57813027 Element set: 490 Inclination: 101.4110 deg RA of node: 263.9027 deg Eccentricity: 0.0012152 Arg of perigee: 083.4508 deg Mean anomaly: 276.7938 deg Mean motion: 12.53591475 rev/day Decay rate: -2.7e-07 rev/day^2 Epoch rev: 73275 Checksum: 285
Satellite: FO-29 Catalog number: 24278 Epoch time: 12271.82839406 Element set: 942 Inclination: 098.5869 deg RA of node: 359.0652 deg Eccentricity: 0.0351055 Arg of perigee: 123.5602 deg Mean anomaly: 239.9579 deg Mean motion: 13.52989509 rev/day Decay rate: -5.3e-07 rev/day^2 Epoch rev: 79583 Checksum: 362
Satellite: SO-33 Catalog number: 25509 Epoch time: 12271.62917418 Element set: 330 Inclination: 031.4328 deg RA of node: 113.9266 deg Eccentricity: 0.0351940 Arg of perigee: 019.6898 deg Mean anomaly: 341.6941 deg Mean motion: 14.28820172 rev/day Decay rate: 5.87e-06 rev/day^2 Epoch rev: 72731 Checksum: 309
Satellite: RS-22 Catalog number: 27939 Epoch time: 12271.58008736 Element set: 762 Inclination: 097.8037 deg RA of node: 107.1195 deg Eccentricity: 0.0012736 Arg of perigee: 305.0472 deg Mean anomaly: 054.9530 deg Mean motion: 14.64141089 rev/day Decay rate: 6.65e-06 rev/day^2 Epoch rev: 48086 Checksum: 314
Satellite: VO-52 Catalog number: 28650 Epoch time: 12270.66254412 Element set: 0219 Inclination: 097.5907 deg RA of node: 296.6291 deg Eccentricity: 0.0027561 Arg of perigee: 068.2413 deg Mean anomaly: 292.1719 deg Mean motion: 14.83198654 rev/day Decay rate: 1.676e-05 rev/day^2 Epoch rev: 40001 Checksum: 313
Satellite: HO-68 Catalog number: 36122 Epoch time: 12271.74934125 Element set: 866 Inclination: 100.3496 deg RA of node: 328.9750 deg Eccentricity: 0.0007161 Arg of perigee: 234.5581 deg Mean anomaly: 125.4862 deg Mean motion: 13.16298241 rev/day Decay rate: -4.4e-07 rev/day^2 Epoch rev: 13388 Checksum: 304
/EX SB KEPS @ AMSAT $ORB12271.D Orbital Elements 12271.MICROS
HR AMSAT ORBITAL ELEMENTS FOR THE MICROSATS FROM WA5QGD FORT WORTH,TX September 27, 2012 Send SUBSCRIBE KEPS/UNSUBSCRIBE KEPS to [email protected] only BID: ORB12271.D TO ALL RADIO AMATEURS BT
Satellite: UO-11 Catalog number: 14781 Epoch time: 12270.76903177 Element set: 986 Inclination: 097.9436 deg RA of node: 329.3434 deg Eccentricity: 0.0010133 Arg of perigee: 064.6835 deg Mean anomaly: 295.5428 deg Mean motion: 14.80569473 rev/day Decay rate: 5.81e-06 rev/day^2 Epoch rev: 53496 Checksum: 337
Satellite: AO-16 Catalog number: 20439 Epoch time: 12270.88658667 Element set: 567 Inclination: 098.4378 deg RA of node: 211.4521 deg Eccentricity: 0.0010065 Arg of perigee: 216.0048 deg Mean anomaly: 144.0454 deg Mean motion: 14.32087048 rev/day Decay rate: 1.78e-06 rev/day^2 Epoch rev: 18455 Checksum: 305
Satellite: LO-19 Catalog number: 20442 Epoch time: 12270.89422491 Element set: 0499 Inclination: 098.4053 deg RA of node: 214.1148 deg Eccentricity: 0.0011346 Arg of perigee: 206.3191 deg Mean anomaly: 153.7410 deg Mean motion: 14.32303320 rev/day Decay rate: 1.84e-06 rev/day^2 Epoch rev: 18474 Checksum: 271
Satellite: AO-27 Catalog number: 22825 Epoch time: 12270.87959382 Element set: 0216 Inclination: 098.5823 deg RA of node: 212.1494 deg Eccentricity: 0.0008427 Arg of perigee: 347.2940 deg Mean anomaly: 012.8025 deg Mean motion: 14.29489027 rev/day Decay rate: 2.12e-06 rev/day^2 Epoch rev: 99100 Checksum: 306
Satellite: IO-26 Catalog number: 22826 Epoch time: 12270.86092664 Element set: 0973 Inclination: 098.5771 deg RA of node: 212.4764 deg Eccentricity: 0.0008910 Arg of perigee: 341.2498 deg Mean anomaly: 018.8354 deg Mean motion: 14.29764904 rev/day Decay rate: 1.59e-06 rev/day^2 Epoch rev: 99113 Checksum: 335
Satellite: GO-32 Catalog number: 25397 Epoch time: 12271.47328218 Element set: 884 Inclination: 098.3749 deg RA of node: 245.2111 deg Eccentricity: 0.0001534 Arg of perigee: 023.1954 deg Mean anomaly: 336.9292 deg Mean motion: 14.23294660 rev/day Decay rate: 1.43e-06 rev/day^2 Epoch rev: 73857 Checksum: 311
Satellite: NO-44 Catalog number: 26931 Epoch time: 12271.86728342 Element set: 146 Inclination: 067.0507 deg RA of node: 215.6909 deg Eccentricity: 0.0006254 Arg of perigee: 253.0397 deg Mean anomaly: 107.0038 deg Mean motion: 14.29834216 rev/day Decay rate: 2.07e-06 rev/day^2 Epoch rev: 57392 Checksum: 300
Satellite: SO-50 Catalog number: 27607 Epoch time: 12271.65718795 Element set: 875 Inclination: 064.5594 deg RA of node: 343.1582 deg Eccentricity: 0.0076340 Arg of perigee: 228.0847 deg Mean anomaly: 131.3743 deg Mean motion: 14.72532902 rev/day Decay rate: 1.259e-05 rev/day^2 Epoch rev: 52505 Checksum: 318
Satellite: CO-55 Catalog number: 27844 Epoch time: 12270.59389723 Element set: 471 Inclination: 098.7047 deg RA of node: 277.5087 deg Eccentricity: 0.0009111 Arg of perigee: 294.5336 deg Mean anomaly: 065.4886 deg Mean motion: 14.21075985 rev/day Decay rate: 1.80e-06 rev/day^2 Epoch rev: 47929 Checksum: 349
Satellite: CO-57 Catalog number: 27848 Epoch time: 12270.54507408 Element set: 0422 Inclination: 098.7130 deg RA of node: 276.8403 deg Eccentricity: 0.0009270 Arg of perigee: 301.5819 deg Mean anomaly: 058.4452 deg Mean motion: 14.20821017 rev/day Decay rate: 1.64e-06 rev/day^2 Epoch rev: 47922 Checksum: 296
Satellite: AO-51 Catalog number: 28375 Epoch time: 12270.46001113 Element set: 0375 Inclination: 098.1597 deg RA of node: 231.0924 deg Eccentricity: 0.0084407 Arg of perigee: 093.7913 deg Mean anomaly: 267.2931 deg Mean motion: 14.40989688 rev/day Decay rate: 1.58e-06 rev/day^2 Epoch rev: 43335 Checksum: 318
Satellite: CP3 Catalog number: 31129 Epoch time: 12270.57764837 Element set: 0274 Inclination: 097.8861 deg RA of node: 272.4088 deg Eccentricity: 0.0100961 Arg of perigee: 167.0251 deg Mean anomaly: 193.3583 deg Mean motion: 14.53215906 rev/day Decay rate: 6.79e-06 rev/day^2 Epoch rev: 28870 Checksum: 324
Satellite: CO-65 Catalog number: 32785 Epoch time: 12271.66054795 Element set: 426 Inclination: 097.7878 deg RA of node: 330.2379 deg Eccentricity: 0.0015856 Arg of perigee: 086.4479 deg Mean anomaly: 273.8564 deg Mean motion: 14.83212796 rev/day Decay rate: 1.545e-05 rev/day^2 Epoch rev: 23895 Checksum: 368
Satellite: PRISM Catalog number: 33493 Epoch time: 12271.74016698 Element set: 110 Inclination: 098.1849 deg RA of node: 054.8659 deg Eccentricity: 0.0018154 Arg of perigee: 327.6854 deg Mean anomaly: 032.3259 deg Mean motion: 14.84379085 rev/day Decay rate: 3.167e-05 rev/day^2 Epoch rev: 19896 Checksum: 339
Satellite: SOHLA-1 Catalog number: 33496 Epoch time: 12271.88657654 Element set: 844 Inclination: 098.1127 deg RA of node: 022.9948 deg Eccentricity: 0.0007671 Arg of perigee: 075.9667 deg Mean anomaly: 284.2391 deg Mean motion: 14.70053520 rev/day Decay rate: 7.29e-06 rev/day^2 Epoch rev: 19733 Checksum: 334
Satellite: SO-67 Catalog number: 35870 Epoch time: 12271.79168872 Element set: 366 Inclination: 097.2237 deg RA of node: 303.9288 deg Eccentricity: 0.0002816 Arg of perigee: 132.1205 deg Mean anomaly: 316.1836 deg Mean motion: 15.24606923 rev/day Decay rate: 5.143e-05 rev/day^2 Epoch rev: 16824 Checksum: 315
Satellite: TISAT-1 Catalog number: 36799 Epoch time: 12271.75686719 Element set: 384 Inclination: 098.0553 deg RA of node: 348.8213 deg Eccentricity: 0.0014359 Arg of perigee: 195.6663 deg Mean anomaly: 164.4137 deg Mean motion: 14.82279968 rev/day Decay rate: 2.082e-05 rev/day^2 Epoch rev: 11968 Checksum: 357
Satellite: STUDSAT Catalog number: 36801 Epoch time: 12271.84549190 Element set: 482 Inclination: 098.0621 deg RA of node: 350.1249 deg Eccentricity: 0.0012745 Arg of perigee: 180.5324 deg Mean anomaly: 179.5882 deg Mean motion: 14.85228821 rev/day Decay rate: 6.012e-05 rev/day^2 Epoch rev: 11975 Checksum: 298
Satellite: FO-69 Catalog number: 37227 Epoch time: 12271.50309918 Element set: 0299 Inclination: 071.9752 deg RA of node: 086.1689 deg Eccentricity: 0.0017721 Arg of perigee: 139.0233 deg Mean anomaly: 221.2222 deg Mean motion: 14.77188357 rev/day Decay rate: 1.763e-05 rev/day^2 Epoch rev: 05120 Checksum: 310
Satellite: FO-70 Catalog number: 37380 Epoch time: 12271.05182549 Element set: 0298 Inclination: 071.9710 deg RA of node: 087.8490 deg Eccentricity: 0.0016476 Arg of perigee: 131.8420 deg Mean anomaly: 228.4153 deg Mean motion: 14.76928503 rev/day Decay rate: 6.10e-06 rev/day^2 Epoch rev: 05102 Checksum: 293
Satellite: ALMASAT-1 Catalog number: 38078 Epoch time: 12271.56913916 Element set: 600 Inclination: 069.4789 deg RA of node: 084.8076 deg Eccentricity: 0.0741426 Arg of perigee: 120.3450 deg Mean anomaly: 247.3245 deg Mean motion: 14.12820104 rev/day Decay rate: 3.5440e-04 rev/day^2 Epoch rev: 3199 Checksum: 297
Satellite: XATCOBEO Catalog number: 38082 Epoch time: 12271.82395964 Element set: 579 Inclination: 069.4856 deg RA of node: 079.0447 deg Eccentricity: 0.0697883 Arg of perigee: 117.2218 deg Mean anomaly: 250.2007 deg Mean motion: 14.24927290 rev/day Decay rate: 8.8585e-04 rev/day^2 Epoch rev: 3216 Checksum: 342
/EX SB KEPS @ AMSAT $ORB12271.W Orbital Elements 12271.WEATHER
HR AMSAT ORBITAL ELEMENTS FOR WEATHER SATELLITES FROM WA5QGD FORT WORTH,TX September 27, 2012 Send SUBSCRIBE KEPS/UNSUBSCRIBE KEPS to [email protected] only BID: ORB12271.W TO ALL RADIO AMATEURS BT
Satellite: NOAA-10 Catalog number: 16969 Epoch time: 12270.71938513 Element set: 0080 Inclination: 098.5751 deg RA of node: 297.9346 deg Eccentricity: 0.0011597 Arg of perigee: 300.4847 deg Mean anomaly: 059.5177 deg Mean motion: 14.27578098 rev/day Decay rate: -1.7e-07 rev/day^2 Epoch rev: 35435 Checksum: 338
